Location: Ferchesar
(52.6477°N, 12.4298°E)
Time: 22:03:07
(UTC+02:00)

Transit 4A - Pass Details

Date: 03 March 2021
Orbit: 868 x 976 km, 66.8° (Epoch: 10 April)

Event Time Altitude Azimuth Distance (km) Brightness Sun altitude
Rises 10:24:32 0° 197° (SSW) 3,659 11.6 25.6°
Reaches altitude 10° 10:27:10 10° 192° (SSW) 2,710 11.1 25.8°
Maximum altitude 10:33:15 51° 119° (ESE) 1,198 9.7 26.3°
Drops below altitude 10° 10:39:16 10° 46° (NE) 2,676 10.2 26.8°
Sets 10:41:51 0° 41° (NE) 3,608 10.8 27.0°
